Location: Newark
(18.8198°N, 82.1672°E)
Time: 06:40:01
(UTC+00:00)

KKS-1 - Visible Passes

Search period start: 19 October 2019 00:00
Search period end: 29 October 2019 00:00
Orbit: 637 x 650 km, 98.3° (Epoch: 18 October)

Date Brightness Start Highest point End Pass type
(mag) Time Alt. Az. Time Alt. Az. Time Alt. Az.
19 Oct ? 14:08:30 34° SW 14:08:30 34° SW 14:11:08 10° SSW visible
20 Oct ? 12:55:50 14° ESE 12:55:50 14° ESE 12:57:23 10° SE visible
20 Oct ? 14:33:30 18° WSW 14:33:30 18° WSW 14:34:56 10° SW visible
21 Oct ? 13:20:48 26° SE 13:20:48 26° SE 13:23:19 10° SSE visible
22 Oct ? 13:45:45 34° S 13:45:45 34° S 13:48:19 10° S visible
23 Oct ? 14:10:41 26° SW 14:10:41 26° SW 14:12:43 10° SSW visible
24 Oct ? 12:57:57 13° ESE 12:57:57 13° ESE 12:59:04 10° SE visible
24 Oct ? 14:35:37 14° WSW 14:35:37 14° WSW 14:36:30 10° SW visible
25 Oct ? 13:22:53 23° SE 13:22:53 23° SE 13:24:57 10° SSE visible
26 Oct ? 13:47:47 28° S 13:47:47 28° S 13:49:56 10° S visible
27 Oct ? 14:12:41 22° SW 14:12:41 22° SW 14:14:18 10° SSW visible
28 Oct ? 12:59:55 13° SE 12:59:55 13° SE 13:00:44 10° SE visible
28 Oct ? 14:37:35 12° SW 14:37:35 12° SW 14:38:03 10° SW visible
